Montpelier, VT

3:54 PM EST on January 23, 2018 (GMT -0500)
Knapp State

Weather History for KMPV - July, 2013

Change the Weather History Date:

Wednesday, July 10, 2013

  Actual Average Record
Temperature  
Mean Temperature 72 °F 67 °F  
Max Temperature 75 °F 79 °F 92 °F (1955)
Min Temperature 68 °F 56 °F 41 °F (1954)
Degree Days  
Heating Degree Days 0 1  
Month to date heating degree days 16  
Since 1 June heating degree days 137  
Since 1 July heating degree days 16  
Cooling Degree Days 7 3  
Month to date cooling degree days 71 30  
Year to date cooling degree days 150 93  
Since 1 June cooling degree days 139 83  
Growing Degree Days 20 (Base 50)    
Moisture  
Dew Point 68 °F    
Average Humidity 90    
Maximum Humidity 100    
Minimum Humidity 79    
Precipitation  
Precipitation 0.17 in 0.13 in 0.94 in (1989)
Month to date precipitation 3.39 1.20  
Year to date precipitation 21.01 17.91  
Sea Level Pressure  
Sea Level Pressure 29.92 in    
Wind  
Wind Speed 9 mph (SSE)    
Max Wind Speed 17 mph    
Max Gust Speed 22 mph    
Visibility 9 miles    
Events Rain    
T = Trace of Precipitation, MM = Missing Value Source: NWS Daily Summary

Daily Weather History Graph

Daily Weather History Graph

Search for Another Location

Airport or City:

Trip Planner

Search our weather history database for the weather conditions in past years. The results will help you decide how hot, cold, wet, or windy it might be!

Date:

Astronomy

Jul. 10, 2013 Rise Set
Actual Time 5:16 AM EDT 8:34 PM EDT
Civil Twilight 4:41 AM EDT 9:09 PM EDT
Nautical Twilight 3:54 AM EDT 9:55 PM EDT
Astronomical Twilight 2:57 AM EDT 10:52 PM EDT
Moon 7:41 AM EDT (7/10) 9:34 PM EDT (7/10)
Length of Visible Light 16h 28m
Length of Day
15h 17m
Waxing Crescent, 5% of the Moon is Illuminated
Jul 10
Waxing Crescent
Jul 15
First Quarter
Jul 22
Full
Jul 29
Last Quarter
Aug 6
New

Hourly Weather History & Observations

Time (EDT) Temp. Dew Point Humidity Pressure Visibility Wind Dir Wind Speed Gust Speed Precip Events Conditions
12:51 AM 69.1 °F 66.0 °F 90% 30.05 in 10.0 mi SSE 9.2 mph - N/A   Overcast
1:16 AM 69.8 °F 66.2 °F 88% 30.06 in 10.0 mi SSE 8.1 mph - N/A   Overcast
1:34 AM 69.8 °F 66.2 °F 88% 30.06 in 10.0 mi South 9.2 mph - N/A   Overcast
1:51 AM 69.1 °F 66.0 °F 90% 30.04 in 10.0 mi SSE 10.4 mph - N/A   Overcast
2:15 AM 69.8 °F 66.2 °F 88% 30.05 in 10.0 mi SSE 9.2 mph - N/A   Overcast
2:51 AM 69.1 °F 66.0 °F 90% 30.01 in 9.0 mi SSE 9.2 mph - N/A   Overcast
3:11 AM 69.8 °F 66.2 °F 88% 30.03 in 9.0 mi SSE 9.2 mph - N/A   Overcast
3:51 AM 69.1 °F 66.0 °F 90% 30.01 in 9.0 mi South 9.2 mph - N/A   Overcast
4:22 AM 68.0 °F 66.2 °F 94% 30.01 in 9.0 mi SSE 6.9 mph - N/A   Overcast
4:51 AM 68.0 °F 64.9 °F 90% 30.00 in 10.0 mi South 10.4 mph - N/A   Overcast
5:26 AM 69.8 °F 66.2 °F 88% 30.01 in 9.0 mi SSE 10.4 mph - N/A   Overcast
5:51 AM 68.0 °F 66.0 °F 93% 30.00 in 9.0 mi SSE 10.4 mph - N/A   Overcast
6:51 AM 68.0 °F 66.0 °F 93% 29.99 in 8.0 mi SSE 11.5 mph - N/A   Overcast
7:51 AM 69.1 °F 66.0 °F 90% 29.97 in 9.0 mi SSE 11.5 mph - N/A   Overcast
8:51 AM 69.1 °F 66.0 °F 90% 29.95 in 7.0 mi SSE 12.7 mph - N/A   Overcast
9:51 AM 69.1 °F 66.0 °F 90% 29.96 in 10.0 mi South 11.5 mph - 0.00 in   Overcast
10:35 AM 71.6 °F 66.2 °F 83% 29.95 in 10.0 mi South 11.5 mph - N/A   Mostly Cloudy
10:51 AM 73.0 °F 66.9 °F 81% 29.94 in 10.0 mi South 11.5 mph - N/A   Overcast
11:21 AM 73.4 °F 66.2 °F 78% 29.94 in 10.0 mi SSE 13.8 mph - N/A   Overcast
11:34 AM 71.6 °F 66.2 °F 83% 29.94 in 10.0 mi SSE 15.0 mph - N/A   Overcast
11:51 AM 73.0 °F 66.9 °F 81% 29.92 in 10.0 mi South 10.4 mph - N/A   Overcast
12:42 PM 73.4 °F 68.0 °F 83% 29.91 in 10.0 mi South 10.4 mph - N/A   Overcast
12:51 PM 73.9 °F 68.0 °F 82% 29.90 in 10.0 mi South 13.8 mph - N/A   Overcast
12:59 PM 73.4 °F 68.0 °F 83% 29.91 in 10.0 mi SSE 10.4 mph - N/A   Overcast
1:51 PM 73.0 °F 68.0 °F 84% 29.87 in 8.0 mi South 10.4 mph - N/A   Overcast
2:04 PM 73.4 °F 69.8 °F 88% 29.87 in 8.0 mi SSE 11.5 mph - N/A   Mostly Cloudy
2:34 PM 73.4 °F 69.8 °F 88% 29.87 in 7.0 mi South 6.9 mph - 0.00 in Rain Light Rain
2:51 PM 73.0 °F 69.1 °F 87% 29.87 in 4.0 mi South 8.1 mph - 0.03 in Rain Light Rain
3:11 PM 71.6 °F 69.8 °F 94% 29.86 in 3.0 mi SE 4.6 mph - 0.05 in Rain Light Rain
3:51 PM 72.0 °F 70.0 °F 93% 29.83 in 3.0 mi SSE 10.4 mph - 0.12 in Rain Rain
4:51 PM 73.0 °F 69.1 °F 87% 29.82 in 10.0 mi South 5.8 mph - 0.02 in   Mostly Cloudy
5:51 PM 73.9 °F 70.0 °F 87% 29.80 in 10.0 mi South 9.2 mph - N/A   Clear
6:51 PM 73.0 °F 70.0 °F 90% 29.80 in 10.0 mi South 8.1 mph - N/A   Clear
7:51 PM 73.9 °F 70.0 °F 87% 29.80 in 10.0 mi South 8.1 mph - N/A   Mostly Cloudy
8:04 PM 73.4 °F 69.8 °F 88% 29.81 in 10.0 mi South 6.9 mph - N/A   Scattered Clouds
8:51 PM 72.0 °F 70.0 °F 93% 29.80 in 10.0 mi South 5.8 mph - N/A   Partly Cloudy
9:51 PM 72.0 °F 69.1 °F 91% 29.81 in 10.0 mi SSE 8.1 mph - N/A   Clear
10:51 PM 70.0 °F 69.1 °F 97% 29.81 in 8.0 mi South 6.9 mph - N/A   Clear
11:51 PM 72.0 °F 68.0 °F 87% 29.80 in 10.0 mi South 5.8 mph - N/A   Clear